EW7483 Weather Reports


Display with metric or nautical units.
time (UTC)temp
F
wind
direction
speed
MPH
gust
MPH
rain 1hr
in
rain 24hr
in
rain mn
in
humidity
%
barometer
mb
20191022004348 57 90 0.0 2.0 0.00 0.00 0.00 92 1024.8
20191022003845 57 90 2.0 2.0 0.00 0.00 0.00 91 1024.9
20191022003345 57 92 1.0 3.0 0.00 0.00 0.00 91 1024.9
20191022002845 57 92 1.0 2.0 0.00 0.00 0.00 91 1024.9
20191022002348 57 90 1.0 2.0 0.00 0.00 0.00 91 1024.9
20191022001845 57 92 0.0 2.0 0.00 0.00 0.00 91 1024.9
20191022001351 57 92 1.0 3.0 0.00 0.00 0.00 91 1024.8
20191022000845 57 103 2.0 2.0 0.00 0.00 0.00 91 1024.8
20191022000348 57 103 2.0 5.0 0.00 0.00 0.00 92 1024.8
20191021235845 57 47 1.0 2.0 0.00 0.00 0.00 92 1024.8
20191021235345 57 44 0.0 1.0 0.00 0.00 0.00 92 1024.9
20191021234848 57 44 0.0 2.0 0.00 0.00 0.00 92 1024.9
20191021234345 57 44 1.0 2.0 0.00 0.00 0.00 92 1024.9
20191021233851 57 47 0.0 1.0 0.00 0.00 0.00 92 1024.9
20191021233345 57 47 1.0 2.0 0.00 0.00 0.00 91 1024.9
20191021232848 57 117 1.0 3.0 0.00 0.00 0.00 91 1025.0
20191021232345 57 119 2.0 3.0 0.00 0.00 0.00 90 1025.0
20191021231848 57 222 0.0 2.0 0.00 0.00 0.00 90 1025.0
20191021231345 57 222 0.0 1.0 0.00 0.00 0.00 90 1025.3
20191021230851 57 220 0.0 1.0 0.00 0.00 0.00 90 1025.3
20191021230351 57 222 0.0 2.0 0.00 0.01 0.00 89 1025.3
20191021225851 57 222 1.0 2.0 0.00 0.01 0.00 89 1025.4
20191021225345 57 222 1.0 2.0 0.00 0.01 0.00 89 1025.4
20191021224845 57 220 1.0 3.0 0.00 0.01 0.00 89 1025.4
20191021224348 58 222 1.0 2.0 0.00 0.01 0.00 88 1025.5
20191021223851 58 230 1.0 2.0 0.00 0.01 0.00 88 1025.5
20191021223348 57 230 1.0 3.0 0.00 0.01 0.00 89 1025.5
20191021222851 57 233 2.0 2.0 0.00 0.01 0.00 89 1025.5
20191021222345 57 234 2.0 2.0 0.00 0.01 0.00 89 1025.5
20191021221848 57 234 1.0 3.0 0.00 0.01 0.00 89 1025.5
20191021221351 57 233 2.0 4.0 0.00 0.01 0.00 89 1025.8
20191021220845 57 233 3.0 3.0 0.00 0.01 0.00 89 1025.8
20191021220351 57 229 1.0 5.0 0.00 0.01 0.00 90 1025.8
20191021215848 57 229 4.0 4.0 0.00 0.01 0.00 91 1025.8
20191021215348 57 227 2.0 3.0 0.00 0.01 0.00 91 1025.8
20191021214848 57 229 2.0 3.0 0.00 0.01 0.00 91 1025.8
20191021214345 57 229 1.0 2.0 0.00 0.01 0.00 91 1025.7
20191021213845 57 227 1.0 2.0 0.00 0.01 0.00 90 1025.7
20191021213345 57 229 2.0 3.0 0.00 0.01 0.00 90 1025.7
20191021212845 57 229 1.0 3.0 0.00 0.01 0.00 90 1025.4
20191021212345 57 227 1.0 1.0 0.00 0.01 0.00 90 1025.4
20191021211848 58 227 0.0 1.0 0.00 0.01 0.00 90 1025.4
20191021211348 58 227 1.0 2.0 0.00 0.01 0.00 89 1025.4
20191021210845 58 227 1.0 2.0 0.00 0.01 0.00 89 1025.4
20191021210345 58 227 1.0 2.0 0.00 0.01 0.00 88 1025.4
20191021205848 58 227 1.0 2.0 0.00 0.01 0.00 89 1025.4
20191021205351 58 229 2.0 3.0 0.00 0.01 0.00 88 1025.4
20191021204845 58 227 1.0 2.0 0.00 0.01 0.00 88 1025.4
20191021204348 58 227 1.0 2.0 0.00 0.01 0.00 88 1025.5
20191021203848 58 227 0.0 3.0 0.00 0.01 0.00 87 1025.5
20191021203351 58 213 1.0 2.0 0.00 0.01 0.00 87 1025.5
20191021202848 58 213 1.0 3.0 0.00 0.01 0.00 88 1025.5
20191021202348 58 213 1.0 3.0 0.00 0.02 0.00 88 1025.5
20191021201851 58 199 1.0 2.0 0.00 0.02 0.00 88 1025.5
20191021201348 58 199 0.0 2.0 0.00 0.02 0.00 88 1025.5
20191021200845 58 192 1.0 3.0 0.00 0.03 0.00 88 1025.5
20191021200345 58 172 2.0 2.0 0.00 0.03 0.00 88 1025.5
20191021195847 58 209 1.0 3.0 0.00 0.03 0.00 88 1025.4
20191021195344 58 210 2.0 3.0 0.00 0.04 0.00 89 1025.4
20191021194844 58 210 2.0 3.0 0.00 0.04 0.00 89 1025.4
20191021194351 58 212 2.0 5.0 0.00 0.04 0.00 89 1025.2
20191021193848 58 212 2.0 5.0 0.00 0.04 0.00 88 1025.2
20191021193347 59 213 1.0 2.0 0.00 0.04 0.00 88 1025.2
20191021192847 59 213 2.0 3.0 0.00 0.05 0.00 88 1025.3
20191021192351 59 210 2.0 3.0 0.00 0.06 0.00 88 1025.3
20191021191845 59 208 1.0 3.0 0.00 0.06 0.00 88 1025.2
20191021191344 59 203 1.0 3.0 0.00 0.06 0.00 88 1025.2
20191021190847 59 200 2.0 3.0 0.00 0.06 0.00 88 1025.2
20191021190347 59 199 1.0 3.0 0.00 0.06 0.00 88 1025.2
20191021185851 59 196 2.0 3.0 0.00 0.06 0.00 88 1025.1
20191021185347 59 191 1.0 2.0 0.00 0.06 0.00 87 1025.1
20191021184850 59 191 1.0 3.0 0.00 0.06 0.00 87 1025.1
20191021184344 59 199 2.0 3.0 0.00 0.06 0.00 87 1025.1
20191021183850 59 198 0.0 2.0 0.00 0.06 0.00 86 1025.1
20191021183344 59 203 2.0 3.0 0.00 0.07 0.00 86 1025.1
20191021182844 59 203 1.0 3.0 0.00 0.07 0.00 85 1025.1
20191021182344 59 202 1.0 2.0 0.00 0.07 0.00 86 1025.1
20191021181847 59 202 0.0 2.0 0.00 0.07 0.00 86 1025.1
20191021181347 59 227 2.0 2.0 0.00 0.07 0.00 86 1025.0
20191021180850 59 227 1.0 2.0 0.00 0.07 0.00 86 1025.0
20191021180347 59 227 1.0 3.0 0.00 0.07 0.00 86 1025.0
20191021175845 59 155 0.0 2.0 0.00 0.07 0.00 87 1025.0
20191021175344 59 154 0.0 1.0 0.00 0.07 0.00 87 1025.0
20191021174850 59 154 0.0 2.0 0.00 0.07 0.00 88 1025.0
20191021174350 59 168 1.0 2.0 0.00 0.07 0.00 88 1024.8
20191021173850 59 144 0.0 2.0 0.00 0.07 0.00 87 1024.8
20191021173347 59 120 0.0 3.0 0.00 0.07 0.00 87 1024.8
20191021172844 59 143 1.0 5.0 0.00 0.07 0.00 87 1025.0
20191021172344 59 114 0.0 3.0 0.00 0.07 0.00 88 1025.0
20191021171844 58 145 0.0 2.0 0.00 0.07 0.00 88 1024.9
20191021171350 58 131 1.0 1.0 0.00 0.07 0.00 89 1024.6
20191021170850 58 130 0.0 2.0 0.00 0.07 0.00 89 1024.6
20191021170347 58 130 0.0 2.0 0.00 0.07 0.00 89 1024.6
20191021165847 58 128 1.0 1.0 0.00 0.07 0.00 90 1024.4
20191021165350 58 128 0.0 1.0 0.00 0.07 0.00 90 1024.4
20191021164850 58 128 0.0 1.0 0.00 0.07 0.00 90 1024.4
20191021164350 58 128 0.0 1.0 0.00 0.07 0.00 90 1024.3
20191021163844 59 128 0.0 1.0 0.00 0.07 0.00 89 1024.3
20191021163347 59 128 0.0 1.0 0.00 0.07 0.00 89 1024.3
20191021162847 59 128 0.0 1.0 0.00 0.07 0.00 89 1024.2
20191021162347 59 128 1.0 1.0 0.00 0.07 0.00 88 1024.2
20191021161850 59 128 1.0 2.0 0.00 0.07 0.00 88 1024.2
20191021161353 59 128 1.0 1.0 0.00 0.07 0.00 88 1023.8
20191021160850 60 128 0.0 2.0 0.00 0.07 0.00 87 1023.8
20191021160344 60 145 1.0 2.0 0.00 0.07 0.00 87 1023.8
20191021155850 60 145 0.0 2.0 0.00 0.07 0.00 87 1023.8
20191021155347 60 165 1.0 2.0 0.00 0.07 0.00 87 1023.8
20191021154847 60 165 1.0 2.0 0.00 0.07 0.00 87 1023.8
20191021154347 60 165 0.0 1.0 0.00 0.07 0.00 86 1024.0
20191021153844 60 165 0.0 2.0 0.00 0.07 0.00 87 1023.9
20191021153350 60 165 0.0 1.0 0.00 0.07 0.00 87 1023.9
20191021152844 60 165 0.0 2.0 0.00 0.07 0.00 86 1024.1
20191021152350 60 192 1.0 2.0 0.00 0.07 0.00 87 1024.1
20191021151847 60 192 0.0 2.0 0.00 0.07 0.00 87 1024.0
20191021151344 60 191 0.0 2.0 0.00 0.07 0.00 86 1024.0
20191021150844 61 178 1.0 2.0 0.00 0.07 0.00 86 1024.0
20191021150351 61 191 1.0 3.0 0.00 0.07 0.00 86 1024.0
20191021145850 61 152 0.0 2.0 0.00 0.07 0.00 84 1023.7
20191021145344 61 152 1.0 2.0 0.00 0.07 0.00 84 1023.7
20191021144855 62 209 3.0 3.0 0.00 0.07 0.00 84 1023.7
20191021144350 62 202 2.0 3.0 0.00 0.07 0.00 84 1023.6
20191021143847 62 112 1.0 6.0 0.00 0.07 0.00 83 1023.6
20191021143350 62 178 1.0 3.0 0.00 0.07 0.00 82 1023.6
20191021142847 63 223 3.0 3.0 0.00 0.07 0.00 82 1023.3
20191021142344 64 192 2.0 4.0 0.00 0.07 0.00 80 1023.3
20191021141844 64 205 3.0 6.0 0.00 0.07 0.00 78 1023.3
20191021141348 65 184 1.0 8.0 0.00 0.07 0.00 78 1023.2
20191021140844 65 205 4.0 6.0 0.00 0.07 0.00 79 1023.2
20191021140356 65 165 2.0 6.0 0.00 0.07 0.00 79 1023.2
20191021135847 65 199 4.0 5.0 0.00 0.07 0.00 80 1023.3
20191021135350 65 171 2.0 7.0 0.00 0.07 0.00 78 1023.2
20191021134850 65 184 2.0 5.0 0.00 0.07 0.00 78 1023.2
20191021134350 64 191 3.0 8.0 0.00 0.07 0.00 84 1023.4
20191021133850 64 337 3.0 5.0 0.00 0.07 0.00 81 1023.4
20191021133351 63 188 2.0 5.0 0.00 0.07 0.00 84 1023.4
20191021132844 62 192 2.0 6.0 0.00 0.07 0.00 86 1023.5
20191021132344 61 198 1.0 4.0 0.00 0.07 0.00 86 1023.5
20191021131848 61 216 5.0 5.0 0.00 0.07 0.00 89 1023.5
20191021131344 60 192 1.0 4.0 0.00 0.07 0.00 89 1023.4
20191021130847 60 200 1.0 6.0 0.00 0.07 0.00 89 1023.4
20191021130344 60 179 1.0 6.0 0.00 0.07 0.00 88 1023.4
20191021125850 61 215 1.0 6.0 0.00 0.07 0.00 89 1023.5
20191021125344 60 200 4.0 5.0 0.00 0.07 0.00 89 1023.5
20191021124847 60 176 0.0 6.0 0.00 0.07 0.00 89 1023.5
20191021124344 60 198 1.0 11.0 0.00 0.07 0.00 89 1023.3
20191021123847 60 167 2.0 6.0 0.00 0.07 0.00 89 1023.2
20191021123358 61 128 3.0 8.0 0.00 0.07 0.00 87 1023.2
20191021122844 61 169 2.0 7.0 0.00 0.07 0.00 87 1023.4
20191021122344 61 210 2.0 7.0 0.00 0.07 0.00 87 1023.4
20191021121844 62 106 1.0 8.0 0.00 0.07 0.00 86 1023.3
20191021121344 62 178 1.0 6.0 0.00 0.07 0.00 84 1023.4
20191021120849 62 161 2.0 9.0 0.00 0.07 0.00 84 1023.4
20191021120352 62 185 4.0 8.0 0.00 0.07 0.00 84 1023.4
20191021115847 62 241 3.0 7.0 0.00 0.07 0.00 84 1023.4
20191021115343 63 179 2.0 7.0 0.00 0.07 0.00 83 1023.4
20191021114850 63 202 3.0 8.0 0.00 0.07 0.00 84 1023.4
20191021114353 62 230 3.0 12.0 0.00 0.07 0.00 84 1023.4
20191021113847 62 213 6.0 11.0 0.00 0.07 0.00 86 1023.4
20191021113351 61 206 5.0 11.0 0.00 0.07 0.00 85 1023.4
20191021112844 61 215 3.0 7.0 0.00 0.07 0.00 87 1023.7
20191021112350 61 203 6.0 8.0 0.00 0.07 0.00 90 1023.7
20191021111847 60 188 2.0 7.0 0.00 0.07 0.00 98 1023.7
20191021111347 60 161 1.0 7.0 0.00 0.07 0.00 98 1023.8
20191021110849 60 217 7.0 8.0 0.00 0.07 0.00 98 1023.8
20191021110353 60 181 2.0 6.0 0.00 0.07 0.00 98 1023.8
20191021105847 59 176 2.0 8.0 0.00 0.07 0.00 98 1023.9
20191021105343 59 203 5.0 7.0 0.00 0.07 0.00 98 1023.9
20191021104849 59 210 4.0 6.0 0.00 0.07 0.00 98 1023.9
20191021104344 59 151 2.0 6.0 0.00 0.07 0.00 98 1024.2
20191021103843 59 185 3.0 5.0 0.00 0.07 0.00 98 1024.2
20191021103347 59 186 3.0 6.0 0.00 0.07 0.00 97 1024.2
20191021102848 58 191 2.0 5.0 0.00 0.07 0.00 97 1024.2
20191021102349 58 232 3.0 8.0 0.00 0.07 0.00 98 1024.2
20191021101852 58 198 4.0 6.0 0.00 0.07 0.00 98 1024.2
20191021101353 58 150 2.0 8.0 0.00 0.07 0.00 98 1024.3
20191021100846 58 184 2.0 7.0 0.00 0.07 0.00 98 1024.3
20191021100348 58 205 6.0 7.0 0.00 0.07 0.00 98 1024.3
20191021095847 58 210 3.0 6.0 0.00 0.07 0.00 98 1024.3
20191021095349 57 192 2.0 7.0 0.00 0.07 0.00 98 1024.3
20191021094847 58 216 4.0 6.0 0.00 0.07 0.00 98 1024.3
20191021094346 58 205 1.0 6.0 0.00 0.07 0.00 97 1024.4
20191021093846 57 191 1.0 6.0 0.00 0.07 0.00 97 1024.4
20191021093350 57 169 1.0 6.0 0.00 0.07 0.00 98 1024.4
20191021092844 57 192 3.0 9.0 0.00 0.07 0.00 98 1024.3
20191021092349 57 205 3.0 7.0 0.00 0.07 0.00 98 1024.3
20191021091852 57 209 3.0 7.0 0.00 0.07 0.00 98 1024.3
20191021091344 57 206 3.0 12.0 0.00 0.07 0.00 98 1024.5
20191021090846 57 202 3.0 10.0 0.00 0.07 0.00 98 1024.5
20191021090355 56 109 2.0 7.0 0.00 0.07 0.00 98 1024.5
20191021085844 56 198 2.0 10.0 0.00 0.07 0.00 98 1024.2
20191021085343 56 257 5.0 11.0 0.00 0.07 0.00 98 1024.2
20191021084853 56 175 2.0 8.0 0.00 0.07 0.00 98 1024.2
20191021084346 56 203 5.0 10.0 0.00 0.07 0.00 98 1024.1
20191021083846 56 188 2.0 11.0 0.00 0.07 0.00 98 1024.1
20191021083352 56 208 6.0 7.0 0.00 0.07 0.00 98 1024.1
20191021082849 56 174 0.0 8.0 0.00 0.07 0.00 98 1023.8
20191021082346 56 147 2.0 13.0 0.00 0.07 0.00 98 1023.8
20191021081849 56 150 2.0 7.0 0.00 0.07 0.00 98 1023.8
20191021081343 56 222 3.0 6.0 0.00 0.07 0.00 98 1023.6
20191021080843 56 196 5.0 11.0 0.00 0.07 0.00 98 1023.6
20191021080347 56 223 2.0 7.0 0.00 0.07 0.00 98 1023.6
20191021075849 56 267 3.0 11.0 0.00 0.07 0.00 98 1023.6
20191021075343 56 202 3.0 8.0 0.00 0.07 0.00 98 1023.6
20191021074846 56 206 2.0 8.0 0.00 0.07 0.00 98 1023.6
20191021074349 56 188 3.0 8.0 0.00 0.07 0.00 98 1023.5
20191021073843 55 179 1.0 5.0 0.00 0.07 0.00 98 1023.5
20191021073343 55 83 1.0 6.0 0.00 0.07 0.00 97 1023.5
20191021072849 56 230 1.0 6.0 0.00 0.07 0.00 98 1023.3
20191021072346 55 203 1.0 7.0 0.00 0.07 0.00 98 1023.3
20191021071843 55 217 2.0 4.0 0.00 0.07 0.00 98 1023.3
20191021071349 55 282 2.0 5.0 0.00 0.07 0.00 97 1023.2
20191021070843 55 206 5.0 5.0 0.00 0.07 0.00 98 1023.2
20191021070343 55 202 2.0 4.0 0.00 0.07 0.00 98 1023.2
20191021065849 56 191 2.0 6.0 0.00 0.07 0.00 97 1023.1
20191021065349 55 162 2.0 4.0 0.00 0.07 0.00 97 1023.1
20191021064843 56 196 2.0 7.0 0.00 0.07 0.00 97 1023.1
20191021064343 55 200 2.0 6.0 0.00 0.07 0.00 97 1023.1
20191021063843 55 203 5.0 6.0 0.00 0.07 0.00 97 1023.1
20191021063343 55 223 2.0 5.0 0.00 0.07 0.00 97 1023.1
20191021062846 55 179 2.0 5.0 0.00 0.07 0.00 97 1023.0
20191021062349 56 208 3.0 6.0 0.00 0.07 0.00 97 1023.0
20191021061846 55 191 2.0 5.0 0.00 0.07 0.00 97 1023.0
20191021061349 56 196 2.0 5.0 0.00 0.07 0.00 97 1023.0
20191021060849 55 186 2.0 6.0 0.00 0.07 0.00 98 1023.0
20191021060349 55 161 0.0 5.0 0.00 0.07 0.00 97 1023.0
20191021055849 56 90 4.0 5.0 0.00 0.07 0.00 97 1022.6
20191021055349 55 212 2.0 7.0 0.00 0.07 0.00 98 1022.6
20191021054843 55 196 1.0 5.0 0.00 0.07 0.00 97 1022.6
20191021054349 55 200 2.0 7.0 0.00 0.07 0.00 98 1022.7
20191021053843 56 209 3.0 9.0 0.00 0.07 0.00 97 1022.7
20191021053352 56 217 5.0 7.0 0.00 0.07 0.00 97 1022.7
20191021052843 56 222 6.0 7.0 0.00 0.07 0.00 97 1022.8
20191021052343 56 189 3.0 10.0 0.00 0.07 0.00 97 1022.8
20191021051843 56 185 3.0 11.0 0.00 0.07 0.00 97 1022.8
20191021051343 56 198 6.0 7.0 0.00 0.07 0.00 97 1022.7
20191021050849 56 226 5.0 7.0 0.00 0.07 0.00 97 1022.7
20191021050346 56 154 5.0 9.0 0.00 0.07 0.00 97 1022.7
20191021045843 55 185 4.0 7.0 0.00 0.07 0.00 97 1022.3
20191021045346 56 198 5.0 6.0 0.00 0.07 0.00 97 1022.3
20191021044849 56 213 4.0 8.0 0.00 0.07 0.00 97 1022.3
20191021044343 56 213 2.0 10.0 0.00 0.07 0.00 97 1022.1
20191021043849 56 195 1.0 8.0 0.00 0.07 0.00 97 1022.1
20191021043349 56 189 3.0 8.0 0.00 0.07 0.00 97 1022.1
20191021042849 56 250 2.0 6.0 0.00 0.07 0.00 97 1022.2
20191021042346 56 233 4.0 6.0 0.00 0.07 0.00 97 1022.2
20191021041846 56 181 2.0 6.0 0.00 0.07 0.00 97 1022.2
20191021041342 56 176 1.0 5.0 0.00 0.07 0.00 97 1022.3
20191021040848 56 206 2.0 6.0 0.00 0.07 0.00 97 1022.3
20191021040342 56 210 3.0 5.0 0.00 0.07 0.00 97 1022.3
20191021035848 56 215 2.0 5.0 0.00 0.07 0.00 97 1022.3
20191021035342 56 212 3.0 6.0 0.00 0.07 0.00 97 1022.3
20191021034848 56 189 5.0 6.0 0.00 0.07 0.00 97 1022.3
20191021034345 56 174 2.0 5.0 0.00 0.07 0.00 97 1022.3
20191021033842 56 198 2.0 8.0 0.00 0.07 0.00 97 1022.3
20191021033345 56 179 3.0 6.0 0.00 0.07 0.00 97 1022.3
20191021032842 56 206 3.0 7.0 0.00 0.07 0.00 97 1022.4
20191021032345 56 181 1.0 7.0 0.00 0.07 0.00 97 1022.4
20191021031848 56 178 3.0 6.0 0.00 0.07 0.00 97 1022.4
20191021031349 56 272 2.0 5.0 0.00 0.07 0.00 97 1022.2
20191021030845 56 198 3.0 8.0 0.00 0.07 0.00 97 1022.2
20191021030349 56 176 2.0 6.0 0.00 0.07 0.00 97 1022.2
20191021025842 56 155 4.0 7.0 0.00 0.07 0.00 97 1022.0
20191021025345 56 253 0.0 6.0 0.00 0.07 0.00 97 1022.0
20191021024845 56 199 2.0 7.0 0.00 0.07 0.00 97 1022.0
20191021024345 56 164 2.0 8.0 0.00 0.07 0.00 97 1021.8
20191021023842 56 164 4.0 5.0 0.00 0.07 0.00 97 1021.8
20191021023342 56 179 1.0 6.0 0.00 0.07 0.00 97 1021.8
20191021022848 56 212 3.0 5.0 0.00 0.07 0.00 97 1021.7
20191021022342 56 199 2.0 6.0 0.00 0.07 0.00 97 1021.7
20191021021842 56 244 2.0 8.0 0.00 0.07 0.00 97 1021.7
20191021021342 56 164 3.0 8.0 0.00 0.07 0.00 97 1021.8
20191021020845 57 186 2.0 7.0 0.00 0.07 0.00 97 1021.8
20191021020346 56 202 2.0 7.0 0.00 0.07 0.00 97 1021.8
20191021015848 56 154 2.0 8.0 0.00 0.07 0.00 97 1021.9
20191021015348 57 171 2.0 6.0 0.00 0.07 0.00 97 1021.9
20191021014848 57 229 5.0 6.0 0.00 0.07 0.00 97 1021.9
20191021014348 57 162 3.0 6.0 0.00 0.06 0.00 97 1022.0
20191021013845 57 189 2.0 7.0 0.00 0.06 0.00 97 1022.0
20191021013348 57 233 5.0 6.0 0.00 0.06 0.00 97 1022.0
20191021012848 57 209 3.0 6.0 0.00 0.06 0.00 97 1022.0
20191021012348 57 215 1.0 6.0 0.00 0.06 0.00 97 1022.0
20191021011845 57 195 3.0 7.0 0.00 0.06 0.00 97 1022.0
20191021011348 57 195 2.0 6.0 0.00 0.06 0.00 97 1022.3
20191021010845 57 205 2.0 6.0 0.00 0.06 0.00 97 1022.3
20191021010342 57 179 1.0 7.0 0.00 0.06 0.00 97 1022.3
20191021005842 57 222 2.0 5.0 0.00 0.06 0.00 97 1022.2
20191021005342 57 196 3.0 3.0 0.00 0.06 0.00 97 1022.2
20191021004845 57 196 1.0 6.0 0.00 0.06 0.00 97 1022.2